HULIANWANG DIGUI-34

Satellite information

Favourite Embed

Satellite Type and Status

PAYLOADIN ORBIT

Key statistics

Satellite HULIANWANG DIGUI-34 at a glance.

Uptime

30

Days in orbit

Revolutions

≈ 13.7

Per day

Orbit

LEO

Low Earth Orbit

Inclination

86.5

Latest

Satellite identification and parameters

Extended collection of information and parameters for HULIANWANG DIGUI-34.

Object identification

Identified? True

Debris? False

Object name: HULIANWANG DIGUI-34

International designator: 2025-121E

Object number (NORAD): 64287

Object ID (CCSDS): 64287

Country: PEOPLES REPUBLIC OF CHINA (PRC)

Current information (Y/N): Y

RCS size: LARGE

Orbital parameters

Period: 105.473 minutes

Inclination: 86.5004 deg

SMA: 7394.7 km

Apoapsis: 1023.878 km

Periapsis: 1009.253 km

RAAN: 132.1919 deg

Eccentricy: 0.0009889

Argument of periapsis: 125.0397 deg

Mean anomaly: 235.1689 deg

Mean motion: 13.65280541 rev/day

Mean motion (dot): -0.00000007 rev/day2

B* drag term: -0.000029361 1/REarth

Two-line elements (TLE)

Creation date: July 4, 2025, 6:39 p.m.

Reference frame: TEME

Reference center: EARTH

Epoch: July 4, 2025, 2 p.m. UTC

TLE line 0: 0 HULIANWANG DIGUI-34

TLE line 1: 1 64287U 25121E 25185.58360545 -.00000007 00000-0 -29361-4 0 9999

TLE line 2: 2 64287 86.5004 132.1919 0009889 125.0397 235.1689 13.65280541 3933

Live tracking on map

Real-time ground track for satellite HULIANWANG DIGUI-34.

In-orbit conjunctions

There are no conjunctions computed for HULIANWANG DIGUI-34, at the moment. Check back to stay up to date, as we update our databases every day.

Go to all conjunctions

Associated space launch

A batch of Low Earth Orbit communication satellites for the Chinese state owned SatNet constellation operated by the China Satellite Network Group. The constellation will eventually consists of 13000 satellites.

HULIANWANG DIGUI-34 was lifted into orbit during the mission ‘Long March 6A | SatNet LEO Group 04’, on board a Long March 6A space rocket.

The launch took place on June 5, 2025, 8:45 p.m. from Launch Complex 9A.

For more information about the launch, click the button.

Launch to space Long March 6A | SatNet LEO Group 04
Long March 6A | SatNet LEO Group 04

Agency: N/A

Status: Launch Successful

Launch date: June 5, 2025, 8:45 p.m. UTC

Rocket: Long March 6A

Launch pad: Launch Complex 9A

Location: Taiyuan Satellite Launch Center, People's Republic of China

...

Latest news about this satellite

News about space launch
China launches fourth group of Guowang megaconstellation satellites

China launched a fourth group of satellites for its Guowang low Earth orbit megaconstellation Thursday, but released few details about the payload or objectives. The post China launches fourth group of Guowang megaconstellation satellites appeared first ...


Newsletter sign-up

Weekly statistics, charts and insights to help you stay on top of the space industry.